カタログに戻る

OPS 4682 DEB

運用中PO
NORAD 26732·DEBRIS·🇺🇸 United States

打ち上げ Apr 3, 1965 から Vandenberg Space Force Base

Loading…

次のパス (今後24時間)

TLE

最新Source: Space-Track

元期: Sep 14, 2026, 06:56 UTC

1 26732U 65027BF  26257.28943000  .00001270  00000-0  44058-2 0  9991
2 26732  90.2647  13.2517 0058535 309.4069  77.6231 12.96046692506716

AllMySatでOPS 4682 DEBをリアルタイム追跡

Download on the App Store